Wind_Speed
27 28 28 29 30 32 32 31 34 34 36 43 45 44 43 48 56 55 53 48 43 38 37 37 35 37 40 52 49 35 36 38 36 37 27 28 33 26 26 25 25 24 25 21 19
30 30 32 33 34 35 38 38 37 39 40 41 45 53 54 52 56 59 56 53 49 43 39 39 37 39 40 45 55 49 39 40 43 42 39 24 27 32 24 27 26 27 25 23 22
32 34 35 37 38 39 41 43 41 44 43 45 50 51 61 60 60 58 60 57 54 49 44 40 42 41 43 46 49 49 49 44 46 44 42 44 34 33 33 28 25 26 24 23 23
33 35 38 40 41 42 46 45 44 48 48 49 53 56 64 68 64 61 64 61 56 51 45 43 45 44 39 44 47 52 49 57 46 43 40 41 37 36 33 28 26 27 25 24 24
35 36 40 42 44 47 48 48 49 54 54 53 54 57 68 70 64 64 63 66 56 51 45 45 44 43 41 36 45 50 53 51 45 42 42 40 42 39 36 29 29 29 27 26 25
37 39 42 44 48 50 52 54 53 60 58 57 55 56 68 72 61 63 63 69 60 57 48 48 50 41 39 38 39 44 55 50 49 42 44 46 41 40 37 33 32 30 29 27 26
38 41 43 47 51 54 56 57 59 62 62 59 54 47 59 57 61 65 63 69 72 58 53 56 54 46 39 41 38 44 55 58 56 51 46 47 42 42 40 35 34 32 29 29 28
40 43 46 49 53 56 59 59 60 60 56 50 42 42 48 55 60 65 64 67 70 59 60 41 55 48 46 38 40 39 54 56 58 56 51 46 43 44 41 38 38 33 33 31 30
42 44 48 50 54 58 60 58 56 51 46 38 34 36 47 53 56 59 65 62 69 75 64 38 43 49 55 42 41 46 50 53 58 62 58 49 43 46 41 42 41 36 35 34 33
43 46 49 51 56 60 59 55 48 41 35 31 29 31 41 46 49 53 62 61 65 68 68 49 41 48 57 51 45 43 45 47 48 56 62 56 44 47 46 44 42 37 37 38 35
43 47 50 52 57 58 54 45 41 33 30 26 25 23 29 38 43 50 57 60 61 63 69 65 44 48 52 44 42 41 44 41 39 54 59 58 48 51 46 48 46 41 36 37 37
44 48 50 52 55 53 46 39 35 33 23 24 21 20 25 35 37 42 50 56 57 58 64 58 46 40 49 41 42 48 47 45 48 47 55 59 56 51 48 48 45 46 42 37 40
44 49 50 53 50 45 38 33 30 26 22 22 16 19 24 28 34 37 46 52 53 53 69 69 48 49 57 52 42 39 43 43 45 44 45 59 65 54 51 47 46 49 49 46 41
44 48 49 50 44 37 34 29 24 19 18 15 10 17 23 28 30 30 40 49 54 53 60 61 48 39 49 44 41 40 36 36 42 47 41 41 54 55 56 55 61 55 50 43 45
44 46 48 47 39 32 28 25 24 19 17 11 9 15 21 26 27 27 36 45 53 56 65 54 38 42 43 38 47 45 46 35 31 35 39 40 40 37 44 44 53 61 55 50 49
43 45 45 37 31 27 22 23 23 23 15 12 10 11 21 26 26 26 32 41 50 59 66 64 41 35 36 35 34 39 47 40 41 33 41 40 32 28 33 36 37 45 58 55 48
42 42 38 32 25 21 21 21 23 20 24 11 9 8 21 25 26 26 31 38 48 50 52 63 61 34 35 39 34 31 37 41 33 35 35 35 38 35 28 27 27 31 37 54 58
39 36 31 25 20 17 19 24 23 23 21 14 9 11 19 25 25 25 29 35 42 45 50 57 62 54 46 39 34 36 30 44 50 39 36 36 34 34 32 29 27 28 28 30 40
36 29 24 20 17 13 17 21 21 23 20 15 6 8 15 23 25 24 25 31 35 40 46 49 57 58 52 43 35 33 34 35 41 43 38 38 36 30 28 28 31 28 25 27 30
32 27 20 18 16 12 14 16 18 20 20 9 4 4 8 21 25 25 26 28 32 35 39 44 47 47 54 54 50 39 37 32 34 31 31 33 34 35 31 29 28 26 28 30 29
29 23 18 14 15 9 10 14 15 15 20 15 4 6 9 8 23 26 26 26 30 29 33 35 39 40 43 46 48 49 43 36 35 37 33 33 33 29 31 33 32 30 28 30 29
27 18 16 9 12 9 10 11 15 15 16 13 4 8 8 12 22 26 26 27 28 23 19 27 21 35 37 36 41 48 48 45 40 42 38 37 36 36 34 33 25 26 23 20 22
23 18 14 9 11 11 9 10 14 17 14 13 12 9 8 7 17 26 28 28 36 35 32 30 27 30 31 31 33 36 40 35 36 35 36 37 43 39 35 30 27 23 23 20 23
21 15 14 9 9 10 9 10 13 13 14 8 11 9 7 11 12 22 27 30 39 37 36 27 28 26 26 29 30 29 30 28 35 37 30 31 30 30 32 29 24 21 23 23 25
19 13 13 10 9 9 9 10 10 13 13 13 12 10 8 10 14 15 23 29 33 46 35 34 29 28 26 27 29 29 30 30 37 31 28 29 30 31 28 26 26 24 24 25 26
16 11 10 7 8 9 8 8 11 12 14 14 8 7 7 8 10 17 19 25 30 34 40 40 34 31 27 27 27 29 28 28 30 28 26 29 29 30 28 24 22 20 19 18 17
17 12 8 5 6 8 6 4 8 11 10 14 11 7 5 3 6 9 17 21 27 32 35 37 35 34 30 27 27 25 27 27 27 26 26 23 22 23 22 20 20 17 15 15 16
Wind_Direction
306 305 306 306 303 302 303 301 297 293 294 294 280 255 255 250 243 232 231 228 225 230 218 218 225 226 224 218 221 212 211 215 219 218 193 216 212 208 217 215 211 206 210 205 206
304 305 305 304 304 302 304 303 295 292 295 284 285 274 242 242 241 232 224 224 217 220 219 216 221 226 220 223 220 218 214 216 217 218 208 218 212 212 216 215 206 205 206 204 205
303 307 307 305 303 303 302 301 296 296 295 291 286 276 264 240 238 232 222 218 214 211 213 225 218 222 224 224 225 220 216 220 220 215 216 230 231 224 219 215 210 207 205 207 206
304 307 305 303 303 303 303 303 299 300 302 294 286 270 255 251 237 231 221 216 211 210 213 217 217 220 220 224 223 218 216 220 220 219 216 225 229 228 225 209 215 213 208 209 210
303 305 305 305 307 306 306 306 303 307 307 298 284 267 256 248 237 232 223 215 206 199 214 206 216 220 221 223 223 217 216 220 220 224 216 222 226 229 225 216 212 217 215 215 212
305 307 307 310 310 308 309 309 308 314 310 300 288 267 250 247 232 230 222 217 205 206 212 207 211 206 219 217 225 222 215 219 214 225 220 226 226 229 226 220 216 220 217 220 218
307 309 310 312 310 310 312 312 314 316 310 300 292 268 249 236 228 222 222 216 213 207 210 213 209 216 209 223 218 223 218 218 216 223 221 222 224 228 227 222 222 223 223 224 224
309 310 312 312 310 313 315 316 320 315 305 299 288 267 241 225 220 218 218 217 213 204 209 209 214 219 209 210 223 226 225 224 217 216 220 222 222 227 227 222 223 223 225 225 228
311 312 311 311 312 315 318 321 321 313 305 298 283 264 234 222 217 216 215 217 212 213 198 205 208 215 216 209 215 222 222 226 220 220 224 226 220 225 220 227 223 221 225 226 229
312 311 312 314 316 319 322 326 318 312 305 298 288 262 234 224 216 213 212 215 215 213 208 204 208 218 225 221 215 218 220 223 226 220 221 224 217 225 222 222 228 225 230 232 230
313 311 314 317 320 324 328 324 319 313 304 304 292 256 230 220 215 211 210 212 212 215 211 216 211 218 217 220 219 211 218 224 223 226 222 218 219 226 224 227 228 224 227 235 236
313 313 317 321 326 331 330 324 320 317 318 313 287 239 221 214 212 212 209 210 211 211 209 213 215 202 207 214 223 223 223 227 221 224 227 224 217 221 225 226 227 229 224 230 236
314 315 321 326 333 333 335 330 324 315 312 310 280 226 210 213 209 210 208 206 205 208 210 203 217 208 214 215 220 211 219 218 221 222 233 228 220 219 225 226 228 232 231 228 234
314 319 325 332 335 341 339 342 339 318 322 317 283 222 209 212 206 205 210 203 203 203 212 215 196 198 196 195 208 213 217 215 222 227 226 225 229 224 225 234 233 231 235 232 238
316 322 330 336 343 343 345 352 352 339 328 315 270 227 207 208 205 201 205 203 203 203 206 196 179 196 196 200 215 221 221 220 210 210 213 216 216 218 233 229 235 231 232 232 238
319 327 335 341 345 348 352 355 350 355 328 316 267 232 206 205 205 198 202 202 205 209 211 214 187 172 177 189 202 204 213 214 204 210 211 204 204 212 222 224 232 232 229 236 233
323 333 339 345 350 349 355 359 353 348 351 314 252 218 206 204 202 201 201 203 206 210 212 220 215 178 174 176 174 186 201 202 210 216 222 218 227 230 225 232 235 231 239 243 242
328 337 343 347 345 349 358 1 352 346 342 332 251 225 202 203 203 200 203 204 209 209 210 217 225 217 186 175 162 190 193 194 199 208 210 223 234 243 242 229 231 227 233 241 248
330 336 342 345 341 341 351 354 359 352 346 331 248 226 205 203 200 201 199 201 211 208 207 215 222 227 216 185 182 170 180 185 198 205 215 219 219 222 224 223 223 221 232 235 241
333 337 337 341 338 322 340 343 349 2 3 351 249 198 197 206 202 199 196 197 207 211 207 217 222 227 234 243 234 197 195 195 196 193 198 209 213 219 229 237 239 240 241 235 241
331 341 338 340 341 349 348 352 351 360 360 0 251 170 146 188 203 201 194 192 199 206 208 213 224 225 225 232 241 230 222 223 211 208 215 220 223 226 237 247 252 259 261 256 255
332 342 336 337 344 339 336 349 354 351 356 358 297 225 221 226 205 201 197 190 186 156 195 188 216 229 228 229 234 242 248 251 247 226 225 236 246 250 256 260 262 262 257 256 266
331 338 336 335 331 340 318 325 337 349 348 353 18 247 244 237 214 208 200 188 178 179 169 183 207 222 222 222 227 235 240 241 252 250 245 252 252 254 259 259 250 250 258 259 260
328 330 336 338 341 343 338 332 330 347 356 347 339 322 305 238 213 214 208 196 184 173 164 176 199 206 213 218 219 226 228 237 247 247 242 242 244 249 248 249 248 246 249 251 250
323 322 327 341 337 341 348 352 339 348 354 353 349 329 296 274 223 215 215 206 196 195 187 191 201 208 204 202 207 215 224 230 240 235 235 234 232 235 239 239 237 241 244 244 247
317 309 311 332 344 343 342 342 0 357 357 352 9 349 308 295 241 214 213 212 204 201 203 210 212 207 205 200 200 206 213 218 226 227 227 224 224 227 230 233 234 235 241 245 249
312 299 285 317 351 358 12 9 13 6 7 20 32 26 16 308 315 242 217 213 210 206 207 211 211 217 210 206 198 197 203 205 209 209 213 216 211 223 229 232 239 249 254 259 266
Height
5766 5764 5762 5761 5759 5758 5757 5756 5754 5753 5751 5747 5744 5749 5752 5754 5754 5762 5767 5772 5776 5783 5788 5789 5796 5799 5802 5806 5809 5814 5822 5825 5830 5831 5839 5839 5841 5844 5843 5849 5852 5855 5855 5858 5862
5760 5758 5756 5754 5751 5749 5748 5747 5746 5744 5742 5740 5739 5734 5737 5739 5744 5749 5756 5761 5765 5771 5779 5782 5787 5792 5796 5800 5804 5809 5816 5820 5822 5826 5831 5832 5837 5839 5843 5845 5849 5851 5852 5855 5859
5753 5750 5748 5745 5743 5740 5738 5735 5734 5733 5731 5728 5724 5723 5718 5725 5730 5738 5743 5750 5755 5761 5769 5775 5779 5785 5789 5793 5797 5802 5809 5812 5816 5822 5828 5829 5836 5835 5836 5843 5849 5848 5850 5853 5855
5745 5743 5740 5737 5734 5730 5727 5724 5721 5718 5715 5712 5706 5703 5703 5705 5714 5721 5729 5737 5743 5751 5759 5766 5770 5775 5782 5785 5791 5796 5801 5804 5811 5817 5822 5827 5831 5831 5836 5841 5844 5845 5847 5850 5853
5738 5734 5731 5727 5723 5718 5713 5709 5705 5701 5696 5691 5685 5683 5681 5685 5697 5707 5717 5724 5732 5741 5750 5756 5762 5769 5774 5781 5783 5789 5794 5798 5809 5813 5819 5821 5825 5827 5832 5838 5839 5840 5844 5846 5849
5728 5725 5720 5716 5711 5706 5699 5693 5688 5682 5675 5667 5661 5659 5659 5663 5682 5689 5701 5711 5720 5729 5739 5747 5754 5760 5765 5772 5774 5783 5786 5793 5801 5805 5812 5815 5820 5823 5830 5832 5834 5837 5840 5844 5846
5719 5714 5709 5704 5699 5692 5685 5678 5670 5662 5654 5645 5636 5635 5636 5652 5661 5672 5683 5696 5707 5718 5728 5737 5744 5750 5757 5764 5769 5776 5778 5785 5793 5798 5804 5808 5815 5819 5822 5828 5831 5832 5837 5840 5843
5710 5704 5699 5693 5687 5680 5671 5662 5652 5642 5632 5623 5618 5616 5622 5630 5642 5656 5669 5683 5696 5708 5715 5726 5735 5741 5747 5753 5760 5766 5770 5773 5783 5788 5796 5802 5810 5811 5817 5821 5825 5828 5831 5836 5839
5700 5694 5689 5682 5675 5666 5656 5646 5636 5625 5616 5609 5605 5604 5609 5617 5630 5643 5656 5669 5682 5694 5706 5713 5723 5729 5737 5742 5750 5754 5759 5764 5774 5781 5789 5796 5804 5804 5812 5813 5818 5824 5826 5830 5833
5691 5685 5679 5670 5662 5653 5643 5633 5623 5613 5607 5600 5597 5597 5600 5609 5620 5631 5644 5658 5669 5682 5693 5703 5711 5718 5726 5729 5737 5746 5750 5756 5765 5771 5778 5787 5797 5796 5803 5807 5812 5819 5823 5825 5828
5681 5675 5668 5659 5650 5641 5631 5622 5614 5607 5599 5594 5590 5590 5594 5604 5613 5623 5634 5646 5656 5668 5684 5690 5697 5708 5718 5726 5733 5739 5746 5752 5759 5764 5771 5779 5789 5788 5797 5802 5804 5812 5818 5821 5824
5671 5666 5658 5648 5639 5630 5620 5612 5603 5597 5594 5589 5586 5587 5591 5599 5608 5617 5627 5639 5650 5664 5676 5680 5690 5697 5706 5716 5723 5730 5738 5743 5751 5756 5762 5769 5779 5781 5789 5795 5800 5801 5810 5814 5817
5663 5657 5648 5639 5629 5621 5612 5605 5596 5592 5590 5586 5583 5584 5588 5596 5603 5611 5620 5631 5643 5655 5667 5677 5686 5693 5698 5706 5713 5721 5730 5736 5744 5750 5755 5761 5767 5773 5780 5788 5792 5792 5799 5807 5812
5656 5649 5640 5631 5624 5613 5607 5599 5593 5589 5587 5585 5582 5583 5586 5592 5600 5607 5616 5626 5637 5649 5659 5668 5676 5681 5691 5700 5708 5713 5724 5728 5736 5743 5746 5752 5758 5767 5774 5778 5783 5785 5792 5801 5804
5648 5641 5633 5623 5616 5610 5604 5597 5592 5588 5587 5584 5582 5581 5585 5592 5600 5604 5611 5621 5631 5642 5651 5666 5668 5674 5683 5692 5701 5708 5717 5724 5730 5734 5740 5745 5753 5763 5763 5768 5771 5776 5783 5791 5796
5641 5634 5625 5618 5612 5607 5602 5596 5592 5589 5585 5582 5580 5580 5583 5588 5595 5600 5606 5613 5622 5633 5644 5654 5662 5669 5673 5684 5693 5702 5708 5718 5723 5728 5732 5739 5746 5750 5756 5762 5763 5768 5776 5780 5789
5635 5627 5621 5614 5610 5606 5600 5595 5593 5588 5585 5581 5578 5579 5581 5587 5591 5597 5602 5608 5618 5627 5639 5647 5654 5662 5669 5676 5686 5696 5701 5707 5714 5718 5724 5732 5738 5744 5751 5754 5759 5764 5771 5774 5777
5629 5623 5617 5611 5608 5605 5600 5596 5592 5588 5582 5579 5577 5578 5580 5585 5591 5595 5601 5607 5615 5626 5634 5645 5652 5656 5667 5672 5677 5688 5692 5697 5702 5710 5718 5726 5732 5738 5744 5747 5753 5758 5761 5764 5769
5624 5620 5614 5610 5607 5604 5600 5596 5593 5588 5583 5578 5577 5579 5580 5585 5590 5594 5599 5606 5612 5621 5631 5639 5646 5653 5659 5667 5668 5676 5682 5690 5697 5705 5712 5721 5728 5733 5737 5741 5747 5752 5756 5759 5762
5621 5617 5612 5609 5606 5602 5599 5597 5593 5589 5583 5579 5579 5580 5580 5584 5589 5593 5598 5605 5612 5618 5626 5633 5641 5647 5653 5657 5662 5669 5677 5686 5694 5701 5707 5715 5722 5727 5730 5736 5741 5746 5750 5754 5758
5618 5614 5610 5607 5605 5600 5599 5596 5593 5590 5586 5583 5581 5582 5582 5583 5588 5592 5598 5604 5611 5617 5623 5631 5636 5643 5647 5653 5660 5666 5673 5682 5689 5696 5703 5711 5717 5722 5727 5731 5735 5740 5744 5747 5751
5614 5612 5608 5605 5604 5600 5598 5596 5594 5591 5587 5584 5583 5583 5583 5584 5587 5591 5597 5602 5609 5616 5622 5625 5628 5632 5642 5648 5654 5663 5671 5676 5682 5692 5699 5705 5711 5716 5722 5727 5730 5735 5737 5741 5743
5611 5608 5606 5604 5602 5599 5597 5596 5594 5591 5588 5586 5584 5583 5584 5584 5587 5590 5595 5601 5606 5611 5617 5622 5625 5630 5635 5642 5649 5658 5668 5673 5680 5688 5693 5699 5706 5711 5716 5720 5724 5729 5732 5735 5737
5609 5606 5604 5602 5600 5599 5596 5595 5594 5592 5589 5587 5586 5584 5584 5584 5585 5588 5593 5599 5605 5609 5614 5618 5623 5629 5635 5641 5647 5654 5660 5665 5675 5683 5686 5694 5701 5706 5710 5714 5716 5721 5726 5727 5729
5606 5604 5602 5601 5599 5598 5596 5595 5593 5592 5590 5588 5586 5583 5583 5583 5584 5586 5590 5596 5602 5607 5612 5616 5620 5625 5631 5637 5643 5649 5654 5661 5672 5676 5681 5688 5693 5699 5703 5706 5709 5713 5717 5719 5721
5605 5602 5601 5600 5599 5597 5596 5595 5594 5592 5590 5587 5585 5584 5583 5583 5583 5585 5588 5593 5598 5604 5609 5614 5618 5622 5628 5633 5638 5645 5652 5659 5666 5670 5676 5681 5687 5691 5695 5700 5703 5706 5710 5713 5715
5601 5600 5599 5600 5598 5597 5595 5595 5594 5593 5591 5589 5586 5585 5584 5584 5584 5584 5586 5590 5596 5601 5605 5611 5615 5620 5626 5630 5637 5644 5649 5655 5661 5665 5671 5677 5681 5685 5688 5693 5696 5699 5701 5704 5706